Volver al catálogo

COSMOS 1275 DEB

ActivoPO
NORAD 42136·DEBRIS·🇷🇺 Russia

Lanzado Jun 4, 1981 desde Plesetsk Cosmodrome

Loading…

Próximos Pases (próximas 24 horas)

TLE

ActualizadoSource: Space-Track

Época: Sep 13, 2026, 07:53 UTC

1 42136U 81053QY  26256.32896252  .00001326  00000-0  89531-3 0  9992
2 42136  83.0187 282.0755 0063313   0.4667 359.6550 13.98794463649841

Sigue COSMOS 1275 DEB en tiempo real con AllMySat

Download on the App Store